Satellite-Ground Cal/Val Site Overpasses Predictions

Prediction of Satellite NPP Overpassing Cal/Val Site: Antarctic Dome C

Ground Cal/Val Site Location: Latitude: -75.10, Longitude: 123.35; Satellite-Ground Site NADIR distance within 100 km.

Table of predicted overpasses for the next 14.0 days since TLE Epoch: 8/10/2012
Interval Starting Time Ending Time Minimum Distance Time Minimum Distance (km)
1 08/11/2012 14:53:00 08/11/2012 14:53:29 08/11/2012 14:53:15 19.51
2 08/12/2012 14:34:19 08/12/2012 14:34:33 08/12/2012 14:34:26 87.47
3 08/13/2012 07:35:51 08/13/2012 07:36:18 08/13/2012 07:36:05 36.82
4 08/14/2012 07:17:04 08/14/2012 07:17:24 08/14/2012 07:17:14 73.25
5 08/16/2012 14:59:18 08/16/2012 14:59:42 08/16/2012 14:59:30 56.64
6 08/17/2012 14:40:29 08/17/2012 14:40:53 08/17/2012 14:40:41 52.53
7 08/18/2012 07:42:09 08/18/2012 07:42:29 08/18/2012 07:42:19 72.06
8 08/19/2012 07:23:16 08/19/2012 07:23:43 08/19/2012 07:23:30 35.97
9 08/21/2012 15:05:41 08/21/2012 15:05:50 08/21/2012 15:05:45 94.32
10 08/22/2012 14:46:40 08/22/2012 14:47:09 08/22/2012 14:46
